C/2018 O1 ( ATLAS )

Japanese version
Home page
Updated on October 28, 2018

---------------------------------------------------------------------

* Profile

Discovery Date July 22, 2018
Magnitude 18.7 mag
Discoverer Asteroid Terrestrial-impact Last Alert System (ATLAS) search program

* Orbital Elements

Epoch 2018 Aug. 30.0 TT = JDT 2458360.5
T 2018 Aug. 31.57474 TT                                 MPCW
q   1.5581544            (2000.0)            P               Q
n   0.00671738     Peri.  162.50631     +0.23042789     -0.86926848
a  27.8186418      Node    87.61970     -0.93693235     -0.07681665
e   0.9439888      Incl.  154.04099     -0.26279415     -0.48833545
P 147
From 318 observations 2018 July 15-Oct. 1, mean residual 0".4.

* Magnitudes Graph

        m1 = 16.5 + 5 log d + 10.0 log r

---------------------------------------------------------------------

The orbital elements are published on M.P.E.C. 2018-U70.
The magnitudes graphs are made with Comet for Windows.

---------------------------------------------------------------------

Copyright(C) Seiichi Yoshida (comet@aerith.net). All rights reserved.